Starlink 31204

operational
NORAD ID: 58731 Int'l Des: 2024-005 Owner: SPXS Country: US Constellation: starlink
LEOCIRCULAR

Über Starlink 31204

Beschreibung wird geladen...

Live-Position

3D-Globus wird geladen...

Nächste Überflüge

Höhenverlauf

Altitude vs Time

uPlot chart will show altitude changes over time

Zweizeiliger Elementsatz

1 58731U 24005D 25255.55354214 .04742848 90238-5 16765-2 0 9994
2 58731 42.9836 42.6505 0031709 316.2913 43.5463 16.22636806 94407
Epoch: 12. Sept. 2025 • Age: 72 hours

Aktueller Status

Höhe 135.1 km
Geschwindigkeit 7.83 km/s
Subsatellitenpunkt 1.10°N, 166.47°W
Startdatum 7. Jan. 2024
Alter 1.6 years
Verglühungsdatum 13. Sept. 2025
Typ internet

Technische Details

Klassifizierung Payload
Masse 730.00 kg
Trockenmasse 700.00 kg
Gesamtmasse 730.00 kg
Länge 0.30 m
Durchmesser 4.10 m
Spannweite 29.00 m
Form Box + pan
Hersteller SPXS
Bus-Typ Starlink V2M
Phasenstatus Reentered
Besitzer/Staat SPXS/US

Große Konstellationen

Loading constellations...